2023/03/17 23:34:24+0000,-34.54,-48.06,-32.15,-44.78,-49.31,-52.21
2023/03/17 23:35:16+0000,-32.79,-46.18,-32.56,-43.35,-48.63,-53.29
2023/03/17 23:36:08+0000,-33.45,-46.65,-31.64,-43.42,-49.25,-52.77
2023/03/17 23:37:00+0000,-32.93,-46.50,-31.79,-45.09,-49.62,-51.60
2023/03/17 23:37:52+0000,-33.58,-47.06,-30.85,-45.66,-47.81,-51.03
2023/03/17 23:38:44+0000,-33.96,-45.63,-31.56,-44.63,-48.31,-50.85
2023/03/17 23:39:36+0000,-33.15,-45.98,-31.46,-42.46,-48.83,-52.21
2023/03/17 23:40:28+0000,-32.89,-46.66,-32.21,-42.44,-49.08,-48.89
2023/03/17 23:41:27+0000,-33.37,-47.13,-32.33,-42.66,-50.54,-48.91
2023/03/17 23:42:19+0000,-33.91,-47.09,-32.03,-41.86,-49.90,-50.44
2023/03/17 23:43:11+0000,-33.82,-46.65,-34.91,-42.06,-50.95,-52.86
2023/03/17 23:44:03+0000,-33.30,-46.61,-31.82,-43.23,-50.72,-54.58
2023/03/17 23:44:55+0000,-33.77,-46.52,-32.74,-43.58,-49.71,-49.28
2023/03/17 23:45:47+0000,-33.62,-46.91,-31.93,-42.96,-48.07,-53.77
2023/03/17 23:46:39+0000,-33.83,-47.19,-31.56,-42.69,-49.51,-52.61
2023/03/17 23:47:31+0000,-33.70,-47.72,-31.99,-42.90,-48.46,-48.45
2023/03/17 23:48:23+0000,-33.29,-46.88,-30.87,-43.27,-49.59,-49.40
2023/03/17 23:49:15+0000,-33.11,-46.37,-31.24,-42.95,-50.02,-52.44
2023/03/17 23:50:07+0000,-33.31,-47.27,-32.67,-41.85,-48.45,-52.94
2023/03/17 23:51:06+0000,-33.49,-47.73,-32.34,-42.57,-47.49,-52.32
2023/03/17 23:51:58+0000,-33.22,-47.08,-31.99,-43.49,-48.91,-49.25
2023/03/17 23:52:50+0000,-33.89,-47.07,-32.28,-44.76,-49.46,-48.71
2023/03/17 23:53:42+0000,-33.00,-46.68,-31.65,-43.63,-50.37,-53.00
2023/03/17 23:54:34+0000,-33.49,-45.98,-31.17,-43.76,-49.33,-53.25
2023/03/17 23:55:27+0000,-33.17,-47.38,-31.17,-44.03,-49.69,-50.53
2023/03/17 23:56:19+0000,-33.97,-46.20,-32.25,-42.70,-49.20,-54.12
2023/03/17 23:57:11+0000,-33.19,-46.50,-31.96,-42.75,-48.88,-53.03
2023/03/17 23:58:03+0000,-32.69,-45.17,-31.89,-43.94,-48.07,-53.88
2023/03/17 23:58:55+0000,-32.62,-46.20,-32.12,-42.27,-50.13,-49.42
2023/03/17 23:59:47+0000,-32.20,-46.73,-32.39,-42.71,-48.53,-51.02
2023/03/18 00:00:42+0000,-33.33,-47.09,-32.26,-41.44,-49.45,-50.13
2023/03/18 00:01:41+0000,-33.18,-46.74,-32.74,-42.46,-49.95,-50.56
2023/03/18 00:02:33+0000,-33.19,-45.11,-31.98,-43.20,-50.60,-51.58
2023/03/18 00:03:25+0000,-33.52,-45.37,-31.77,-43.56,-50.98,-51.36
2023/03/18 00:04:17+0000,-33.66,-46.24,-31.80,-44.30,-49.88,-50.72
2023/03/18 00:05:09+0000,-33.31,-46.40,-31.99,-43.44,-51.75,-49.46
2023/03/18 00:06:02+0000,-31.91,-45.17,-32.14,-43.97,-48.42,-54.05
2023/03/18 00:06:54+0000,-32.64,-45.13,-31.75,-43.23,-51.71,-49.04
2023/03/18 00:07:46+0000,-33.03,-44.93,-32.44,-42.75,-49.44,-54.60
2023/03/18 00:08:38+0000,-32.63,-46.48,-32.34,-42.49,-47.02,-50.69
2023/03/18 00:09:30+0000,-33.49,-45.20,-32.41,-42.74,-48.66,-49.61
2023/03/18 00:10:22+0000,-33.60,-44.97,-31.83,-43.40,-48.34,-49.86
2023/03/18 00:11:21+0000,-32.60,-46.11,-32.36,-42.76,-47.69,-50.81
2023/03/18 00:12:13+0000,-33.17,-45.85,-32.81,-43.78,-47.80,-50.87
2023/03/18 00:13:05+0000,-32.81,-46.40,-31.37,-43.81,-49.23,-51.36
2023/03/18 00:13:57+0000,-32.98,-46.81,-32.35,-44.59,-48.35,-49.33
2023/03/18 00:14:49+0000,-33.29,-46.06,-31.99,-45.77,-47.64,-49.57
2023/03/18 00:15:41+0000,-32.84,-45.63,-32.34,-44.08,-49.91,-51.25
2023/03/18 00:16:33+0000,-33.75,-46.13,-31.79,-46.21,-47.96,-48.54
2023/03/18 00:17:25+0000,-33.50,-47.05,-31.44,-44.85,-49.94,-49.09
2023/03/18 00:18:17+0000,-33.36,-46.17,-31.91,-44.28,-48.65,-54.04
2023/03/18 00:19:09+0000,-33.10,-46.61,-31.82,-43.41,-49.81,-50.03
2023/03/18 00:20:01+0000,-33.19,-46.31,-31.63,-44.49,-48.71,-54.83
2023/03/18 00:21:00+0000,-33.32,-46.88,-30.98,-44.36,-48.44,-54.20
2023/03/18 00:21:52+0000,-33.38,-46.35,-31.43,-44.38,-49.17,-49.31
2023/03/18 00:22:45+0000,-33.18,-45.52,-32.38,-44.68,-47.57,-48.01
2023/03/18 00:23:37+0000,-33.11,-44.81,-32.12,-44.33,-48.99,-50.06
2023/03/18 00:24:29+0000,-33.90,-46.76,-31.53,-42.11,-49.18,-52.51
2023/03/18 00:25:21+0000,-32.68,-45.56,-31.55,-43.88,-48.01,-50.41
2023/03/18 00:26:13+0000,-34.10,-45.55,-31.95,-44.00,-48.70,-48.00
2023/03/18 00:27:05+0000,-33.99,-44.60,-31.66,-43.73,-46.23,-47.07
2023/03/18 00:27:57+0000,-33.42,-45.44,-32.90,-42.32,-49.70,-49.30
2023/03/18 00:28:49+0000,-33.32,-45.03,-32.51,-43.77,-49.32,-51.40
2023/03/18 00:29:41+0000,-33.30,-45.72,-32.07,-42.90,-49.77,-48.53
2023/03/18 00:30:33+0000,-33.21,-45.29,-32.03,-43.02,-47.52,-53.00
2023/03/18 00:31:32+0000,-33.50,-45.87,-32.30,-42.20,-47.65,-53.49
2023/03/18 00:32:24+0000,-32.73,-47.54,-36.51,-42.35,-48.02,-48.69
2023/03/18 00:33:16+0000,-33.65,-45.89,-35.94,-43.15,-47.35,-53.06
2023/03/18 00:34:08+0000,-33.14,-46.40,-36.36,-43.10,-48.08,-47.37
2023/03/18 00:35:00+0000,-33.32,-44.97,-37.11,-43.01,-47.63,-47.63
2023/03/18 00:35:52+0000,-33.56,-45.31,-36.49,-42.53,-48.05,-49.01
2023/03/18 00:36:45+0000,-33.26,-44.88,-36.47,-43.26,-48.48,-50.50
2023/03/18 00:37:37+0000,-33.01,-46.39,-36.16,-41.76,-48.68,-47.22
2023/03/18 00:38:29+0000,-33.63,-44.75,-36.07,-41.12,-48.32,-47.98
2023/03/18 00:39:21+0000,-32.70,-47.66,-34.09,-44.08,-47.85,-48.41
2023/03/18 00:40:13+0000,-33.23,-46.96,-36.06,-42.99,-48.06,-51.33
2023/03/18 00:41:12+0000,-34.90,-46.29,-36.56,-42.65,-49.75,-49.83
2023/03/18 00:42:04+0000,-33.33,-46.25,-36.82,-42.76,-48.66,-51.66
2023/03/18 00:42:56+0000,-33.96,-46.28,-36.40,-42.49,-49.54,-51.23
2023/03/18 00:43:48+0000,-33.85,-46.28,-35.52,-43.30,-47.85,-53.31
2023/03/18 00:44:40+0000,-33.42,-44.94,-36.05,-42.02,-48.80,-51.46
2023/03/18 00:45:32+0000,-33.26,-46.20,-36.31,-41.97,-47.98,-53.37
2023/03/18 00:46:24+0000,-33.68,-45.84,-36.00,-43.63,-48.20,-51.59
2023/03/18 00:47:16+0000,-33.41,-47.58,-36.38,-42.87,-47.63,-48.56
2023/03/18 00:48:08+0000,-33.22,-46.90,-36.97,-42.73,-47.39,-49.28
2023/03/18 00:49:00+0000,-33.82,-46.68,-36.35,-42.45,-45.56,-48.17
2023/03/18 00:49:53+0000,-34.07,-46.96,-36.60,-42.34,-47.32,-48.43
2023/03/18 00:50:45+0000,-33.34,-45.72,-36.16,-43.45,-47.71,-51.98
2023/03/18 00:51:43+0000,-32.74,-45.44,-36.50,-43.21,-46.63,-49.62
2023/03/18 00:52:35+0000,-33.52,-46.18,-35.88,-42.85,-45.87,-53.14
2023/03/18 00:53:27+0000,-33.40,-45.66,-36.13,-42.06,-46.03,-50.53
2023/03/18 00:54:19+0000,-33.90,-46.61,-34.65,-42.91,-47.45,-48.22
2023/03/18 00:55:12+0000,-33.38,-45.68,-35.85,-42.92,-48.84,-53.53
2023/03/18 00:56:04+0000,-33.59,-44.98,-36.03,-41.82,-47.33,-53.69
2023/03/18 00:56:56+0000,-33.37,-44.88,-36.15,-43.17,-49.69,-51.13
2023/03/18 00:57:48+0000,-33.64,-45.83,-36.53,-42.78,-47.74,-53.26
2023/03/18 00:58:40+0000,-32.88,-45.44,-36.03,-42.69,-48.34,-53.44
2023/03/18 00:59:32+0000,-33.68,-45.87,-36.19,-41.13,-49.96,-53.44
2023/03/18 01:00:24+0000,-34.00,-45.82,-36.13,-42.35,-48.77,-50.19
2023/03/18 01:01:27+0000,-33.23,-45.35,-35.97,-42.31,-48.90,-49.30
2023/03/18 01:02:20+0000,-33.72,-45.34,-36.32,-44.96,-49.95,-50.94
2023/03/18 01:03:12+0000,-33.79,-44.74,-35.81,-44.81,-49.33,-52.73
2023/03/18 01:04:04+0000,-33.62,-45.47,-35.56,-45.29,-49.66,-52.97
2023/03/18 01:04:56+0000,-32.95,-45.05,-35.53,-43.78,-49.28,-52.11
2023/03/18 01:05:48+0000,-33.30,-46.00,-35.27,-45.60,-49.21,-47.75
2023/03/18 01:06:40+0000,-32.83,-45.17,-35.71,-44.24,-50.27,-52.36
2023/03/18 01:07:32+0000,-33.63,-44.21,-35.31,-43.27,-48.70,-53.39
2023/03/18 01:08:24+0000,-33.74,-44.77,-35.59,-42.02,-50.38,-51.92
2023/03/18 01:09:16+0000,-34.09,-45.22,-35.56,-45.09,-49.33,-53.51
2023/03/18 01:10:08+0000,-34.43,-46.38,-34.90,-45.35,-48.92,-52.48
2023/03/18 01:11:07+0000,-33.24,-45.79,-35.25,-44.33,-50.24,-52.49
2023/03/18 01:11:59+0000,-33.22,-45.28,-35.14,-43.47,-49.31,-51.69
2023/03/18 01:12:51+0000,-33.66,-46.28,-34.92,-44.37,-48.97,-52.89
2023/03/18 01:13:43+0000,-33.56,-45.52,-36.63,-44.52,-49.76,-52.33
2023/03/18 01:14:35+0000,-32.81,-44.96,-36.48,-43.63,-49.20,-51.37
2023/03/18 01:15:27+0000,-33.46,-45.80,-36.49,-41.51,-49.47,-53.13
2023/03/18 01:16:19+0000,-33.36,-45.51,-35.49,-44.98,-49.92,-52.87
2023/03/18 01:17:11+0000,-33.31,-46.26,-36.26,-44.59,-50.92,-52.84
2023/03/18 01:18:04+0000,-33.08,-45.00,-35.25,-44.34,-48.43,-53.14
2023/03/18 01:18:56+0000,-33.67,-46.06,-35.25,-41.09,-51.14,-52.83
2023/03/18 01:19:48+0000,-33.48,-45.22,-36.60,-43.67,-49.79,-53.14
2023/03/18 01:20:40+0000,-33.52,-45.43,-36.19,-43.61,-49.95,-53.24
2023/03/18 01:21:38+0000,-32.90,-47.09,-35.65,-43.20,-48.58,-53.12
2023/03/18 01:22:30+0000,-33.43,-46.14,-36.34,-42.57,-48.78,-53.44
2023/03/18 01:23:22+0000,-33.69,-45.60,-34.71,-42.33,-49.43,-52.98
2023/03/18 01:24:14+0000,-33.25,-44.96,-36.50,-43.55,-50.08,-52.37
2023/03/18 01:25:07+0000,-33.97,-45.56,-36.07,-42.71,-50.40,-52.43
2023/03/18 01:25:59+0000,-33.99,-45.30,-36.10,-42.42,-50.64,-53.06
2023/03/18 01:26:51+0000,-33.42,-45.55,-35.97,-43.98,-49.21,-53.14
2023/03/18 01:27:43+0000,-33.17,-44.57,-36.72,-43.86,-49.62,-52.36
2023/03/18 01:28:35+0000,-33.56,-45.43,-37.00,-43.81,-49.48,-53.30
2023/03/18 01:29:27+0000,-33.74,-45.52,-36.51,-41.29,-48.89,-52.82
2023/03/18 01:30:19+0000,-32.84,-44.61,-36.46,-44.23,-49.20,-53.23
2023/03/18 01:31:17+0000,-32.67,-44.91,-36.51,-43.81,-50.16,-53.11
2023/03/18 01:32:09+0000,-33.32,-45.47,-36.27,-44.57,-50.00,-52.80
2023/03/18 01:33:01+0000,-33.52,-45.71,-36.92,-42.88,-49.41,-52.76
2023/03/18 01:33:53+0000,-33.40,-45.18,-36.60,-43.38,-50.06,-52.83
2023/03/18 01:34:46+0000,-33.11,-44.96,-36.82,-44.45,-50.85,-52.23
2023/03/18 01:35:38+0000,-33.58,-45.82,-36.49,-43.18,-48.48,-52.28
2023/03/18 01:36:30+0000,-32.92,-45.20,-36.67,-42.27,-49.82,-52.72
2023/03/18 01:37:22+0000,-33.25,-45.09,-36.49,-42.61,-51.03,-52.85
2023/03/18 01:38:14+0000,-32.56,-45.24,-36.95,-43.51,-50.54,-53.26
2023/03/18 01:39:06+0000,-32.66,-45.79,-36.74,-43.86,-50.39,-52.64
2023/03/18 01:39:58+0000,-33.05,-45.05,-36.21,-42.85,-50.57,-52.50
2023/03/18 01:40:50+0000,-33.19,-45.20,-35.51,-44.60,-50.06,-52.52
2023/03/18 01:41:49+0000,-33.17,-44.77,-36.10,-42.61,-49.37,-53.23
2023/03/18 01:42:41+0000,-33.25,-44.64,-35.21,-43.13,-49.77,-52.67
2023/03/18 01:43:33+0000,-33.24,-43.69,-35.84,-42.96,-49.58,-53.60
2023/03/18 01:44:25+0000,-32.54,-43.31,-35.97,-42.88,-50.02,-53.17
2023/03/18 01:45:17+0000,-32.61,-43.92,-36.07,-41.88,-49.52,-53.25
2023/03/18 01:46:09+0000,-33.13,-42.56,-35.18,-42.18,-49.82,-52.73
2023/03/18 01:47:01+0000,-32.74,-44.79,-35.98,-41.90,-49.62,-52.58
2023/03/18 01:47:53+0000,-32.92,-45.74,-34.62,-43.11,-49.32,-52.89
2023/03/18 01:48:45+0000,-33.26,-43.84,-36.29,-43.62,-49.96,-52.40
2023/03/18 01:49:37+0000,-32.82,-44.92,-35.57,-42.80,-48.92,-52.60
2023/03/18 01:50:29+0000,-32.97,-43.11,-36.54,-43.11,-49.78,-53.11
2023/03/18 01:51:28+0000,-33.10,-45.82,-36.18,-42.52,-48.37,-52.68
2023/03/18 01:52:20+0000,-33.17,-45.41,-36.35,-43.98,-48.83,-53.12
2023/03/18 01:53:12+0000,-33.27,-44.43,-35.26,-43.68,-49.03,-52.88
2023/03/18 01:54:04+0000,-32.74,-43.38,-35.89,-45.20,-48.38,-53.17
2023/03/18 01:54:56+0000,-32.77,-43.32,-35.62,-41.71,-49.09,-52.86
2023/03/18 01:55:48+0000,-32.66,-45.01,-36.14,-42.97,-50.24,-52.87
2023/03/18 01:56:40+0000,-32.75,-44.79,-35.50,-44.86,-49.29,-52.45
2023/03/18 01:57:32+0000,-32.85,-45.18,-35.04,-44.31,-49.09,-53.58
2023/03/18 01:58:24+0000,-33.04,-43.45,-35.97,-44.25,-48.96,-53.33
2023/03/18 01:59:16+0000,-33.09,-44.78,-35.29,-42.70,-50.02,-52.74
2023/03/18 02:00:08+0000,-31.98,-44.25,-35.55,-42.17,-48.91,-52.31
2023/03/18 02:01:08+0000,-32.95,-43.27,-35.06,-42.59,-49.27,-51.68
2023/03/18 02:02:00+0000,-33.09,-43.38,-35.84,-41.37,-50.66,-53.27
2023/03/18 02:02:52+0000,-33.43,-44.56,-34.84,-41.97,-49.59,-52.10
2023/03/18 02:03:44+0000,-33.27,-43.36,-35.43,-41.78,-49.17,-53.80
2023/03/18 02:04:36+0000,-33.18,-44.72,-35.08,-45.26,-49.57,-53.11
2023/03/18 02:05:28+0000,-32.45,-45.38,-35.32,-44.04,-49.23,-53.68
2023/03/18 02:06:20+0000,-32.75,-45.46,-34.67,-45.00,-49.97,-54.18
2023/03/18 02:07:12+0000,-33.07,-43.82,-35.01,-45.96,-50.37,-53.53
2023/03/18 02:08:04+0000,-33.39,-46.00,-35.22,-46.44,-47.60,-53.37
2023/03/18 02:08:56+0000,-33.46,-44.30,-35.25,-45.98,-47.02,-53.75
2023/03/18 02:09:49+0000,-33.13,-42.05,-35.41,-46.51,-49.80,-53.83
2023/03/18 02:10:41+0000,-32.90,-42.72,-33.03,-43.19,-50.16,-54.02
2023/03/18 02:11:39+0000,-33.40,-43.18,-34.79,-44.64,-50.19,-53.45
2023/03/18 02:12:31+0000,-33.54,-43.71,-36.13,-46.17,-48.70,-53.71
2023/03/18 02:13:23+0000,-32.73,-42.66,-34.90,-45.79,-49.95,-54.52
2023/03/18 02:14:15+0000,-33.05,-43.96,-34.72,-42.98,-49.56,-52.64
2023/03/18 02:15:07+0000,-33.38,-43.08,-35.15,-44.89,-49.04,-53.99
2023/03/18 02:15:59+0000,-31.86,-44.34,-34.58,-43.61,-48.90,-53.92
2023/03/18 02:16:51+0000,-32.08,-43.97,-34.93,-43.92,-49.64,-54.21
2023/03/18 02:17:43+0000,-31.56,-43.92,-35.78,-42.93,-50.03,-53.56
2023/03/18 02:18:35+0000,-33.12,-42.47,-35.19,-46.20,-48.91,-53.88
2023/03/18 02:19:27+0000,-33.16,-43.90,-35.10,-40.92,-50.04,-53.65
2023/03/18 02:20:20+0000,-33.23,-41.94,-35.79,-43.11,-48.80,-53.99
2023/03/18 02:21:18+0000,-32.49,-43.58,-35.04,-42.78,-48.36,-54.24
2023/03/18 02:22:10+0000,-33.15,-42.15,-35.46,-39.73,-49.54,-54.86
2023/03/18 02:23:02+0000,-32.75,-43.65,-34.63,-39.55,-50.06,-53.93
2023/03/18 02:23:54+0000,-32.19,-43.81,-35.54,-42.43,-50.25,-54.17
2023/03/18 02:24:46+0000,-33.12,-43.54,-35.43,-43.16,-49.39,-53.00
2023/03/18 02:25:38+0000,-33.28,-42.69,-35.55,-42.65,-46.88,-53.11
2023/03/18 02:26:30+0000,-33.43,-43.17,-35.41,-43.00,-48.50,-53.35
2023/03/18 02:27:22+0000,-32.88,-44.55,-34.37,-41.93,-49.80,-53.96
2023/03/18 02:28:14+0000,-33.69,-44.06,-34.43,-42.05,-49.47,-53.41
2023/03/18 02:29:06+0000,-33.58,-44.65,-35.57,-42.28,-46.86,-54.31
2023/03/18 02:29:59+0000,-33.12,-43.02,-35.51,-42.30,-48.12,-54.08
2023/03/18 02:30:51+0000,-32.70,-44.35,-34.51,-43.74,-50.28,-54.08
2023/03/18 02:31:49+0000,-32.50,-42.22,-35.41,-42.96,-50.07,-53.97
2023/03/18 02:32:41+0000,-33.36,-42.64,-35.37,-42.81,-50.12,-53.84
2023/03/18 02:33:33+0000,-32.96,-43.43,-34.89,-42.39,-47.87,-53.81
2023/03/18 02:34:25+0000,-32.60,-43.83,-35.43,-41.84,-49.58,-54.35
2023/03/18 02:35:17+0000,-32.65,-41.41,-35.33,-42.21,-47.39,-54.05
2023/03/18 02:36:09+0000,-32.97,-43.52,-35.51,-42.34,-46.38,-54.25
2023/03/18 02:37:01+0000,-33.82,-43.32,-35.70,-41.28,-46.80,-54.56
2023/03/18 02:37:53+0000,-33.15,-44.22,-35.15,-41.42,-47.52,-54.22
2023/03/18 02:38:45+0000,-33.90,-42.06,-35.37,-40.90,-47.59,-53.91
2023/03/18 02:39:37+0000,-33.24,-43.40,-35.34,-41.14,-47.29,-54.32
2023/03/18 02:40:29+0000,-33.57,-43.48,-34.79,-42.06,-47.17,-54.11
2023/03/18 02:41:28+0000,-32.80,-43.68,-35.50,-41.71,-47.07,-54.33
2023/03/18 02:42:20+0000,-33.85,-42.10,-35.63,-42.92,-47.12,-53.95
2023/03/18 02:43:12+0000,-33.66,-44.05,-34.77,-40.07,-46.50,-54.16
2023/03/18 02:44:04+0000,-33.61,-42.89,-35.47,-43.11,-50.08,-54.10
2023/03/18 02:44:56+0000,-32.74,-43.97,-34.78,-42.03,-50.12,-54.12
2023/03/18 02:45:48+0000,-32.95,-42.13,-35.23,-41.99,-46.97,-53.31
2023/03/18 02:46:41+0000,-32.84,-41.90,-34.93,-41.36,-49.33,-53.24
2023/03/18 02:47:33+0000,-33.11,-43.76,-34.72,-42.53,-48.75,-52.80
2023/03/18 02:48:25+0000,-33.42,-43.91,-35.51,-41.07,-48.50,-52.33
2023/03/18 02:49:17+0000,-32.56,-42.91,-35.23,-42.73,-47.69,-52.44
2023/03/18 02:50:09+0000,-32.90,-44.13,-35.05,-42.41,-49.58,-52.27
2023/03/18 02:51:07+0000,-32.44,-44.71,-34.86,-41.66,-49.18,-52.59
2023/03/18 02:51:59+0000,-32.40,-44.14,-35.39,-41.27,-48.49,-52.71
2023/03/18 02:52:51+0000,-32.34,-44.57,-35.35,-41.79,-46.92,-52.62
2023/03/18 02:53:43+0000,-31.95,-42.37,-35.78,-41.68,-48.76,-52.84
2023/03/18 02:54:35+0000,-33.33,-43.37,-35.45,-42.83,-49.52,-52.54
2023/03/18 02:55:27+0000,-33.20,-43.49,-35.40,-41.24,-49.26,-52.30
2023/03/18 02:56:19+0000,-32.71,-41.35,-35.07,-38.86,-48.36,-52.04
2023/03/18 02:57:12+0000,-32.97,-41.12,-34.98,-35.16,-48.43,-52.00
2023/03/18 02:58:04+0000,-33.35,-43.08,-33.87,-43.39,-48.58,-52.11
2023/03/18 02:58:56+0000,-32.99,-41.81,-35.40,-42.32,-49.31,-52.01
2023/03/18 02:59:48+0000,-32.94,-43.62,-35.15,-40.02,-49.32,-52.69
2023/03/18 03:00:40+0000,-32.57,-39.95,-35.15,-39.00,-49.12,-52.08
2023/03/18 03:01:39+0000,-33.06,-40.22,-35.27,-37.87,-49.53,-51.91
2023/03/18 03:02:31+0000,-33.30,-44.22,-34.96,-38.75,-49.06,-51.78
2023/03/18 03:03:23+0000,-32.75,-42.71,-35.42,-39.29,-47.32,-51.58
2023/03/18 03:04:15+0000,-32.89,-40.53,-35.10,-40.81,-47.77,-51.94
2023/03/18 03:05:07+0000,-32.13,-40.99,-34.90,-41.95,-48.50,-52.16
2023/03/18 03:05:59+0000,-32.97,-43.63,-35.25,-41.44,-45.93,-51.78
2023/03/18 03:06:51+0000,-33.17,-44.46,-34.54,-42.31,-47.53,-51.58
2023/03/18 03:07:43+0000,-32.65,-41.61,-35.45,-37.24,-49.62,-51.82
2023/03/18 03:08:35+0000,-32.89,-42.81,-35.19,-39.68,-44.84,-51.82
2023/03/18 03:09:27+0000,-32.90,-39.30,-34.99,-40.16,-47.80,-52.45
2023/03/18 03:10:19+0000,-32.88,-42.65,-35.01,-40.40,-48.69,-52.70
2023/03/18 03:11:17+0000,-33.12,-42.43,-35.07,-42.39,-48.55,-52.52
2023/03/18 03:12:09+0000,-32.45,-42.45,-35.25,-40.89,-49.82,-51.59
2023/03/18 03:13:02+0000,-32.19,-39.19,-35.32,-38.86,-48.23,-52.19
2023/03/18 03:13:54+0000,-32.58,-42.17,-34.99,-38.41,-47.81,-52.63
2023/03/18 03:14:46+0000,-32.95,-43.23,-35.08,-39.33,-48.44,-52.46
2023/03/18 03:15:38+0000,-29.61,-42.57,-34.83,-38.75,-47.22,-52.53
2023/03/18 03:16:30+0000,-33.24,-42.41,-35.45,-38.68,-46.80,-52.22
2023/03/18 03:17:22+0000,-32.95,-43.35,-35.37,-38.29,-47.20,-52.67
2023/03/18 03:18:14+0000,-32.73,-42.08,-35.10,-39.05,-47.09,-52.02
2023/03/18 03:19:06+0000,-31.84,-43.40,-35.18,-40.79,-46.64,-52.02
2023/03/18 03:19:58+0000,-33.67,-41.70,-36.23,-41.19,-49.03,-52.61
2023/03/18 03:20:50+0000,-33.22,-42.93,-35.80,-41.50,-46.99,-51.99
2023/03/18 03:21:48+0000,-32.45,-40.86,-35.19,-42.08,-48.35,-52.34
2023/03/18 03:22:40+0000,-32.88,-41.25,-35.58,-40.51,-49.74,-53.45
2023/03/18 03:23:33+0000,-32.84,-41.81,-35.67,-41.96,-47.43,-52.30
2023/03/18 03:24:25+0000,-32.90,-40.81,-35.59,-41.09,-50.05,-52.12
2023/03/18 03:25:17+0000,-33.04,-41.74,-35.71,-41.49,-48.65,-52.26
2023/03/18 03:26:09+0000,-32.92,-42.46,-35.34,-41.43,-46.92,-52.35
2023/03/18 03:27:01+0000,-33.35,-42.74,-35.14,-41.97,-47.04,-52.61
2023/03/18 03:27:53+0000,-33.21,-41.27,-35.12,-41.17,-48.97,-52.39
2023/03/18 03:28:45+0000,-33.17,-43.05,-35.33,-41.75,-47.99,-52.29
2023/03/18 03:29:37+0000,-32.51,-42.88,-35.36,-42.41,-48.20,-52.08
2023/03/18 03:30:29+0000,-32.57,-39.45,-35.72,-41.95,-47.68,-52.57
2023/03/18 03:31:27+0000,-32.38,-42.00,-34.88,-42.09,-48.40,-52.49
2023/03/18 03:32:19+0000,-32.29,-43.05,-35.30,-42.89,-48.73,-52.78
2023/03/18 03:33:11+0000,-32.76,-41.37,-35.15,-41.75,-48.66,-52.62
2023/03/18 03:34:03+0000,-32.77,-42.59,-35.55,-42.70,-48.51,-52.07
2023/03/18 03:34:55+0000,-32.67,-40.45,-35.30,-41.50,-49.07,-52.46
2023/03/18 03:35:48+0000,-32.93,-41.02,-34.65,-41.98,-48.64,-52.40
2023/03/18 03:36:40+0000,-32.02,-41.86,-34.82,-42.78,-49.01,-52.39
2023/03/18 03:37:32+0000,-32.94,-40.67,-33.53,-40.61,-48.06,-52.20
2023/03/18 03:38:24+0000,-32.65,-40.24,-35.04,-41.81,-48.68,-51.87
2023/03/18 03:39:16+0000,-33.62,-41.92,-34.62,-41.96,-49.39,-52.41
2023/03/18 03:40:08+0000,-32.72,-41.44,-34.56,-42.79,-46.27,-52.10
2023/03/18 03:41:07+0000,-32.93,-41.40,-35.26,-42.32,-48.57,-52.29
2023/03/18 03:41:59+0000,-32.76,-41.01,-35.96,-41.11,-48.88,-52.10
2023/03/18 03:42:51+0000,-33.09,-41.43,-34.82,-42.30,-48.03,-52.35
2023/03/18 03:43:43+0000,-32.34,-41.58,-35.79,-42.09,-48.73,-52.30
2023/03/18 03:44:35+0000,-32.49,-39.44,-35.18,-42.53,-49.28,-52.33
2023/03/18 03:45:27+0000,-33.70,-41.59,-35.52,-41.21,-48.30,-52.28
2023/03/18 03:46:19+0000,-33.16,-42.19,-35.54,-42.26,-48.36,-52.75
2023/03/18 03:47:11+0000,-32.60,-42.46,-35.29,-41.71,-49.11,-51.63
2023/03/18 03:48:03+0000,-32.51,-40.29,-35.11,-42.41,-48.89,-52.55
2023/03/18 03:48:55+0000,-32.09,-40.01,-35.06,-41.35,-49.32,-51.96
2023/03/18 03:49:48+0000,-33.26,-42.43,-35.20,-42.71,-49.11,-52.69
2023/03/18 03:50:40+0000,-32.90,-43.15,-35.02,-42.29,-49.46,-52.37
2023/03/18 03:51:39+0000,-33.13,-41.96,-34.93,-41.45,-48.33,-52.39
2023/03/18 03:52:31+0000,-33.23,-41.74,-34.82,-41.70,-48.47,-51.25
2023/03/18 03:53:23+0000,-32.93,-43.36,-35.27,-42.58,-48.91,-52.82
2023/03/18 03:54:15+0000,-33.44,-43.52,-35.32,-42.18,-49.19,-51.70
2023/03/18 03:55:07+0000,-33.06,-42.70,-35.25,-42.06,-48.33,-52.84
2023/03/18 03:55:59+0000,-33.95,-40.20,-35.26,-42.63,-48.44,-52.10
2023/03/18 03:56:51+0000,-33.54,-43.37,-34.98,-43.34,-49.26,-52.19
2023/03/18 03:57:43+0000,-33.14,-42.13,-35.49,-41.82,-48.58,-51.98
2023/03/18 03:58:35+0000,-33.20,-40.20,-34.52,-42.54,-47.73,-52.36
2023/03/18 03:59:27+0000,-33.17,-41.01,-35.22,-42.08,-49.36,-51.87
2023/03/18 04:00:19+0000,-32.73,-41.81,-35.48,-43.12,-48.61,-51.56
2023/03/18 04:01:18+0000,-33.65,-42.52,-34.94,-42.35,-48.45,-51.86
2023/03/18 04:02:10+0000,-33.30,-43.38,-35.29,-41.25,-48.13,-51.52
2023/03/18 04:03:02+0000,-33.24,-42.30,-34.99,-41.04,-49.62,-52.23
2023/03/18 04:03:54+0000,-33.03,-41.80,-35.62,-41.66,-48.95,-52.58
2023/03/18 04:04:47+0000,-33.07,-41.66,-34.69,-40.54,-48.29,-53.15
2023/03/18 04:05:39+0000,-33.21,-40.96,-34.75,-41.24,-47.53,-53.07
2023/03/18 04:06:31+0000,-32.72,-40.11,-35.04,-41.64,-48.64,-51.83
2023/03/18 04:07:23+0000,-32.65,-40.13,-35.23,-41.59,-48.03,-52.21
2023/03/18 04:08:15+0000,-33.11,-43.36,-35.57,-40.78,-48.52,-52.71
2023/03/18 04:09:07+0000,-32.32,-43.99,-35.36,-39.00,-47.15,-53.03
2023/03/18 04:09:59+0000,-33.14,-40.95,-35.36,-41.28,-47.62,-53.04
2023/03/18 04:10:51+0000,-32.33,-44.54,-35.19,-41.74,-47.92,-52.28
2023/03/18 04:11:49+0000,-32.90,-42.99,-35.09,-41.65,-48.25,-52.69
2023/03/18 04:12:41+0000,-33.20,-43.37,-34.96,-40.85,-48.32,-52.21
2023/03/18 04:13:33+0000,-32.89,-40.42,-35.09,-41.96,-49.07,-52.69
2023/03/18 04:14:25+0000,-33.19,-42.00,-35.44,-40.93,-49.08,-52.50
2023/03/18 04:15:17+0000,-32.79,-40.67,-35.57,-42.34,-49.13,-52.46
2023/03/18 04:16:09+0000,-30.50,-41.10,-35.06,-40.50,-49.15,-53.06
2023/03/18 04:17:01+0000,-33.50,-42.07,-35.53,-41.15,-48.95,-53.20
2023/03/18 04:17:53+0000,-32.79,-42.32,-35.17,-40.08,-48.37,-52.18
2023/03/18 04:18:45+0000,-33.55,-40.84,-35.47,-41.72,-48.47,-53.11
2023/03/18 04:19:37+0000,-30.78,-42.01,-35.44,-41.46,-49.24,-52.49
2023/03/18 04:20:30+0000,-33.48,-41.96,-35.59,-40.61,-48.95,-52.17
2023/03/18 04:21:28+0000,-32.39,-43.55,-35.51,-41.09,-48.66,-52.71
2023/03/18 04:22:20+0000,-32.74,-44.13,-35.55,-40.44,-48.69,-52.64
2023/03/18 04:23:12+0000,-32.64,-43.02,-35.79,-41.69,-49.45,-52.28
2023/03/18 04:24:04+0000,-33.24,-40.13,-34.97,-42.05,-48.92,-52.51
2023/03/18 04:24:56+0000,-33.47,-42.72,-35.65,-40.92,-48.93,-52.56
2023/03/18 04:25:48+0000,-32.69,-42.45,-35.66,-42.77,-48.54,-53.06
2023/03/18 04:26:40+0000,-32.71,-41.43,-36.14,-41.38,-48.37,-52.19
2023/03/18 04:27:32+0000,-32.20,-41.26,-35.50,-41.47,-48.71,-52.78
2023/03/18 04:28:24+0000,-32.97,-42.29,-34.73,-40.30,-48.37,-52.72
2023/03/18 04:29:16+0000,-32.56,-42.45,-34.29,-41.56,-47.63,-52.42
2023/03/18 04:30:09+0000,-30.66,-43.93,-35.40,-41.84,-48.58,-52.54
2023/03/18 04:31:08+0000,-33.08,-43.68,-34.87,-39.34,-47.66,-52.55
2023/03/18 04:32:00+0000,-32.56,-41.55,-35.53,-40.66,-49.26,-52.43
2023/03/18 04:32:52+0000,-32.38,-43.36,-35.48,-40.84,-49.06,-51.94
2023/03/18 04:33:44+0000,-33.05,-42.30,-34.58,-40.46,-48.88,-52.17
2023/03/18 04:34:36+0000,-32.54,-43.91,-34.53,-41.30,-49.37,-52.46
2023/03/18 04:35:29+0000,-33.05,-42.15,-35.25,-41.19,-48.63,-52.63
2023/03/18 04:36:21+0000,-32.96,-43.21,-35.73,-41.75,-48.97,-52.34
2023/03/18 04:37:13+0000,-31.92,-41.76,-35.38,-39.70,-49.22,-52.74
2023/03/18 04:38:05+0000,-32.06,-42.32,-35.74,-39.27,-49.03,-52.05
2023/03/18 04:38:57+0000,-33.01,-40.99,-36.02,-39.15,-48.91,-52.96
2023/03/18 04:39:49+0000,-32.65,-42.58,-35.21,-39.61,-48.57,-52.77
2023/03/18 04:40:41+0000,-32.03,-42.25,-34.78,-38.71,-49.63,-52.22
2023/03/18 04:41:39+0000,-33.25,-41.58,-35.05,-38.68,-48.91,-52.86
2023/03/18 04:42:31+0000,-33.31,-42.61,-35.08,-38.93,-48.71,-51.97
2023/03/18 04:43:23+0000,-32.77,-42.30,-35.43,-38.36,-49.38,-52.35
2023/03/18 04:44:15+0000,-33.01,-42.74,-35.48,-39.13,-48.53,-52.95
2023/03/18 04:45:07+0000,-32.35,-43.71,-35.63,-38.85,-48.67,-52.74
2023/03/18 04:45:59+0000,-37.81,-42.91,-35.89,-45.57,-50.48,-52.57
2023/03/18 04:46:51+0000,-36.69,-43.54,-35.44,-45.28,-49.66,-52.81
2023/03/18 04:47:43+0000,-37.04,-43.31,-35.14,-43.75,-50.43,-52.39